Helicity
82 117 87 65 81 69 77 69 61 70 50 44 60 70 82 96 48 26 34 28 30 45 40 18 36 36 39 49 41 48 55 100 108 99 107 113 119 116 90 97 98 103 110 110
97 90 55 57 64 66 65 57 43 44 29 13 26 55 44 26 27 42 42 39 26 25 7 40 39 61 60 77 70 59 63 83 99 102 144 148 131 125 117 123 112 104 111 95
75 54 35 49 46 50 38 40 39 28 21 30 19 21 43 18 16 24 40 53 74 109 67 23 62 92 84 75 79 70 79 68 93 101 103 127 135 112 87 86 108 111 80 95
51 27 44 40 19 17 29 8 20 10 9 20 27 34 20 11 -13 36 52 103 110 72 73 129 138 130 107 93 92 110 103 73 75 63 79 94 88 92 96 105 92 104 101 88
21 24 20 12 10 18 -4 24 27 20 24 34 37 59 10 -4 -1 -6 11 71 111 127 145 123 113 111 101 116 87 85 115 86 71 63 69 80 67 76 129 124 73 69 69 84
19 11 16 13 11 16 13 31 52 26 15 30 32 34 -6 14 31 35 38 60 70 58 94 103 101 93 82 77 88 85 104 115 67 66 57 50 27 57 169 178 88 61 65 108
3 4 -15 -16 -15 -14 -13 -15 7 19 26 17 21 18 37 18 36 52 36 3 45 54 64 80 75 81 90 68 70 75 102 99 78 55 53 49 19 23 5 172 141 35 70 120
-4 17 -13 -22 -22 -30 -22 -32 0 -27 -5 34 15 -9 -16 21 17 2 10 31 28 50 68 75 81 99 97 87 82 70 84 84 80 59 43 42 19 5 6 35 49 67 106 103
0 13 15 28 14 22 12 4 28 47 31 24 -36 -10 0 -2 7 5 -19 -15 -13 29 58 74 84 110 104 95 80 80 69 92 90 52 49 29 14 -32 -34 39 57 79 124 106
30 26 23 14 39 47 48 65 33 29 18 21 -21 -1 19 33 44 27 -1 -14 11 40 75 84 95 102 101 95 90 70 72 75 90 76 58 30 24 -25 -36 -23 55 88 108 96
8 16 23 10 44 54 55 39 43 43 75 18 -4 15 57 52 48 44 51 16 29 47 85 93 98 113 112 99 92 78 74 69 70 75 58 41 23 10 -15 -48 -49 -11 23 24
10 12 31 60 58 44 59 78 127 85 58 96 117 85 29 25 39 79 61 47 6 88 74 93 114 133 126 107 99 101 86 73 64 64 60 53 30 14 -12 -31 -38 -41 -9 24
42 18 11 4 19 72 86 113 173 183 164 171 161 51 70 76 71 67 103 91 74 79 65 98 137 151 138 116 111 110 103 94 89 81 71 63 57 48 24 -7 -43 -65 -83 -70
85 88 85 84 54 101 154 174 207 281 270 252 444 292 320 119 89 95 94 108 85 79 85 90 125 146 128 124 120 110 96 91 85 81 72 72 65 54 33 19 10 -6 -20 -27
105 61 83 101 69 94 152 172 217 347 331 250 177 197 338 223 192 163 130 123 77 44 -9 10 56 126 123 116 112 98 88 92 92 82 64 46 43 52 58 56 46 39 44 42
62 7 -40 7 32 -17 46 105 171 186 178 173 199 144 258 163 30 66 63 23 -6 -25 -18 -15 24 67 97 137 128 116 103 96 105 88 67 52 36 24 16 17 28 39 44 51
72 26 -51 -32 -47 -97 2 11 55 106 85 128 132 210 89 172 138 89 8 -77 -30 -32 -68 -67 -69 12 93 138 163 151 138 118 112 93 86 79 62 43 30 26 24 19 19 23
203 182 92 22 -39 -24 72 76 96 184 126 115 128 110 136 145 119 124 94 64 14 4 10 -1 -16 -2 32 84 138 135 145 141 129 104 91 87 82 77 75 66 55 50 47 43
230 247 188 140 107 -25 43 96 124 11 41 31 119 76 28 1 -27 15 -23 42 34 62 39 17 38 51 61 105 154 204 199 171 147 114 100 94 91 78 63 62 73 81 86 79
185 179 249 240 129 71 119 111 67 42 101 97 59 -15 -64 -88 -111 -88 -85 27 56 66 26 -2 48 67 74 87 186 254 229 222 176 148 127 131 131 119 120 115 89 75 85 92
164 157 155 172 220 136 107 138 76 100 61 99 3 -187 -84 -7 42 72 58 82 107 101 47 41 69 74 68 117 214 229 244 223 170 199 167 157 149 137 121 115 115 115 104 97
144 151 189 221 229 93 103 145 137 113 126 -16 -16 6 -20 -19 67 121 133 114 115 117 102 78 86 81 83 122 202 206 220 169 224 199 188 180 164 159 154 134 120 120 118 119
256 227 190 328 251 224 218 252 282 328 168 145 135 18 63 72 48 58 77 100 121 137 144 120 122 100 105 145 186 192 135 249 255 260 227 209 192 161 152 147 130 139 128 125
233 242 364 379 268 218 175 204 225 144 131 115 79 107 53 22 -24 34 76 73 92 116 149 165 156 144 122 162 186 152 207 253 285 268 260 250 233 203 175 164 150 144 135 130
278 334 348 269 227 210 142 89 76 39 80 104 82 83 74 79 117 126 74 30 74 124 141 173 187 171 142 177 187 180 242 290 286 263 268 280 249 211 208 177 161 150 122 130
289 331 299 300 166 144 170 119 76 53 68 91 75 76 81 109 137 166 153 147 132 114 128 173 164 166 148 172 165 198 268 327 316 301 304 282 267 248 225 200 170 119 106 92
Wind_Speed
34 32 38 40 41 40 45 53 59 55 48 62 54 71 72 64 45 43 42 42 47 51 50 53 51 59 63 66 77 81 83 83 78 80 81 78 81 84 83 77 77 75 75 76
33 35 33 37 39 41 44 51 53 51 43 65 59 73 49 38 38 40 34 36 42 50 52 45 47 51 62 63 73 76 75 80 73 69 69 69 75 77 80 78 73 70 68 71
31 29 32 35 39 45 45 46 51 55 61 44 58 43 38 37 39 35 27 26 23 21 31 46 44 45 56 60 65 73 58 53 60 61 64 67 71 70 70 70 68 67 64 64
30 31 34 37 40 42 46 39 49 56 53 45 48 44 34 33 23 9 17 19 20 35 42 30 23 38 47 43 46 50 50 47 49 55 55 57 65 67 64 66 66 67 66 65
32 30 33 36 38 40 40 44 46 41 38 44 34 38 22 31 35 42 36 26 20 24 16 7 7 17 29 37 40 45 51 50 46 44 45 44 47 53 58 60 58 57 54 52
29 29 30 31 35 35 41 44 41 37 39 36 31 36 21 25 29 34 24 18 13 9 8 9 18 26 34 40 47 49 48 45 45 44 45 39 40 55 54 53 53 47 41 39
32 11 32 31 27 33 35 36 39 37 38 24 24 26 23 17 24 19 17 12 9 9 11 16 22 31 36 42 48 53 50 51 46 44 45 42 33 48 43 46 46 35 30 30
27 29 32 32 32 34 38 37 37 36 44 38 20 23 24 24 22 18 10 8 8 9 12 17 24 29 32 38 44 49 55 49 50 47 41 38 38 30 38 35 34 29 23 25
28 30 17 23 33 35 30 39 34 37 36 39 19 21 29 19 18 19 19 17 13 15 19 21 25 27 30 35 37 41 48 51 50 46 46 40 37 35 28 31 28 25 23 24
28 25 27 24 20 15 19 27 31 40 40 34 15 14 16 15 17 22 22 22 22 26 26 23 22 23 25 29 33 35 39 46 49 46 46 45 38 36 36 31 19 26 25 23
26 28 26 27 27 25 25 21 24 23 23 18 19 12 10 11 11 13 16 22 25 30 29 23 19 20 22 25 27 29 33 37 42 44 41 41 41 38 33 32 28 26 29 31
25 24 23 21 23 21 19 19 21 18 17 15 22 21 16 10 6 7 5 13 27 22 28 21 16 18 21 23 26 27 29 32 36 36 39 39 40 39 35 30 28 28 31 35
24 22 18 19 24 21 15 13 12 16 22 6 22 7 38 30 17 12 16 20 27 28 30 28 22 16 18 19 21 22 23 26 29 32 33 35 36 36 34 30 27 25 25 29
23 19 15 18 10 23 5 8 4 5 11 11 15 33 34 31 34 29 25 23 25 26 29 36 27 14 13 13 13 15 18 22 25 28 30 31 31 32 31 30 29 27 26 25
21 11 10 25 33 34 35 34 20 23 26 26 23 23 47 26 22 26 27 23 25 17 21 20 14 8 6 5 4 5 8 12 16 18 21 22 26 28 28 28 27 27 29 30
9 13 17 33 29 23 28 33 34 39 46 56 59 62 60 47 33 18 20 14 34 42 31 38 20 13 18 13 11 9 9 10 13 14 15 19 20 20 21 23 25 27 28 29
1 3 5 11 11 34 28 3 8 4 9 27 36 41 49 53 51 49 45 47 33 25 34 20 27 17 12 17 14 13 12 11 11 11 12 14 16 18 19 20 21 21 21 23
16 18 19 14 26 12 27 22 19 10 6 17 25 44 48 45 44 42 32 24 26 17 21 33 22 14 14 11 14 11 8 8 7 7 7 9 11 13 16 18 19 21 23 24
18 17 30 29 30 28 41 36 34 29 42 9 10 8 14 66 71 76 48 30 20 24 36 52 47 39 17 9 7 6 5 4 3 2 2 5 8 11 14 17 20 22 24 26
25 19 16 39 34 36 43 46 42 48 51 35 30 45 56 65 88 79 76 59 41 37 53 63 60 56 46 32 20 13 12 12 12 10 9 10 11 14 16 18 20 28 32 34
32 27 19 27 41 42 50 44 49 42 42 49 56 72 76 79 78 88 85 71 54 60 67 66 61 57 51 42 26 21 20 20 17 16 16 15 15 19 23 25 26 27 34 38
32 34 38 37 47 66 31 38 38 49 65 82 88 90 95 100 96 92 91 81 70 70 66 64 58 54 49 39 28 24 25 23 21 21 21 20 20 22 26 28 29 30 35 41
51 39 49 35 43 49 40 52 54 72 89 89 92 108 98 97 97 98 91 80 77 71 63 57 53 53 49 40 31 30 30 27 26 25 24 23 22 25 27 28 32 34 35 41
52 46 58 63 64 67 76 68 68 76 81 75 74 76 92 100 104 104 87 89 93 81 73 64 58 54 53 45 37 35 35 32 30 29 27 26 26 26 29 31 32 34 36 38
56 56 69 80 84 94 76 68 81 90 87 93 94 91 88 85 84 88 94 102 94 83 77 68 61 60 59 51 45 42 39 36 34 32 31 29 28 27 28 30 29 32 35 35
63 69 83 98 91 100 104 100 103 106 105 106 105 100 91 85 86 84 85 82 75 77 84 69 60 58 58 54 50 46 40 35 35 34 33 28 27 26 26 28 32 31 33 35
Wind_Direction
313 316 309 316 321 322 320 314 313 319 327 324 326 316 315 320 332 338 342 346 344 343 345 344 349 343 341 342 336 334 333 331 322 314 307 301 294 292 288 286 283 280 278 276
314 313 326 326 327 326 325 320 320 324 331 325 326 316 331 347 351 351 1 359 354 350 349 1 4 1 351 350 344 344 345 339 332 326 317 309 298 292 288 284 283 281 280 279
316 324 327 329 328 325 324 323 324 323 324 337 329 334 346 355 353 4 18 24 37 40 25 6 11 11 5 2 359 351 357 359 352 344 332 319 305 292 288 284 281 281 282 280
326 323 325 328 327 332 325 336 329 323 327 329 342 332 345 4 35 155 52 48 49 19 9 33 38 27 22 20 16 13 11 11 8 1 353 338 316 297 287 285 281 281 280 279
328 333 334 330 336 342 334 341 339 341 343 339 355 351 34 1 14 9 30 58 59 52 78 87 37 32 32 29 26 25 22 17 15 13 10 4 347 308 291 283 284 283 282 284
343 349 350 352 351 359 321 331 317 309 325 350 9 8 64 40 49 40 34 107 128 136 97 56 34 30 25 26 26 26 27 27 25 23 25 26 21 312 295 287 284 288 284 286
346 334 217 199 209 260 278 282 322 331 329 23 59 47 134 138 177 186 218 206 106 76 50 32 26 24 23 21 23 25 27 28 32 33 36 40 44 349 303 289 285 296 293 291
243 212 211 208 228 262 298 305 328 254 285 255 78 97 58 137 175 192 150 111 77 48 32 21 20 21 22 22 23 24 27 31 34 38 43 50 58 73 320 305 299 304 303 296
241 207 96 64 342 339 343 326 11 355 345 295 125 170 227 159 104 73 61 55 51 33 22 18 18 21 22 23 26 27 28 32 37 44 48 57 69 79 103 318 321 329 318 302
133 181 147 165 88 75 109 67 33 349 307 265 156 168 151 77 60 42 42 36 27 20 14 14 18 21 26 28 30 32 34 35 38 47 53 61 75 86 99 131 282 299 319 307
148 147 166 167 149 136 117 132 111 116 100 106 263 184 83 112 90 49 32 22 14 11 9 9 14 22 27 32 35 37 40 41 42 48 57 65 73 88 107 122 153 203 230 233
135 138 174 160 85 95 107 120 88 102 115 94 34 226 73 96 74 31 353 2 5 359 360 2 5 18 22 26 32 38 43 48 49 56 60 65 72 82 97 122 147 180 251 272
100 130 199 134 91 76 114 107 103 51 25 130 19 117 7 13 17 0 341 332 338 350 356 358 358 3 13 21 29 35 43 48 55 59 65 70 71 76 88 110 129 155 176 225
56 67 143 192 158 25 70 48 104 151 14 3 228 254 252 258 263 276 292 311 333 344 352 357 358 350 1 14 26 37 44 46 50 54 57 63 69 73 77 82 89 97 104 102
30 185 191 227 239 240 242 240 231 225 224 225 255 258 260 284 309 329 337 334 345 332 277 272 276 309 247 210 172 137 113 93 84 81 77 77 67 62 65 68 68 64 51 40
91 209 229 254 245 228 243 241 238 234 231 238 247 255 262 262 265 318 327 302 260 268 266 269 266 250 227 216 202 179 160 135 104 99 92 84 85 89 87 77 59 46 37 30
149 223 342 263 9 264 257 183 146 155 229 227 230 243 256 265 266 264 259 261 256 257 265 277 271 261 239 218 202 195 179 152 140 120 99 89 78 68 66 65 62 58 55 47
329 344 350 288 328 255 5 4 344 276 306 224 247 247 249 255 263 264 258 258 257 271 343 349 340 307 248 226 208 197 178 170 155 138 110 84 76 68 58 48 43 35 31 25
298 318 334 340 340 268 340 355 356 357 342 343 210 209 239 308 315 319 344 343 321 337 341 340 344 347 342 310 277 246 267 262 261 274 351 21 33 28 25 18 13 11 8 6
336 314 318 331 333 336 340 335 339 337 330 347 350 338 332 330 311 320 325 328 330 329 330 329 329 329 331 330 319 292 285 289 277 286 300 323 336 343 350 357 1 353 347 346
335 330 286 304 321 323 320 316 323 332 330 329 325 324 322 318 317 313 315 317 317 316 317 321 322 324 326 324 316 293 288 282 279 292 298 305 316 326 332 338 342 346 339 337
318 322 320 317 317 321 341 335 322 325 319 315 312 312 311 308 307 309 310 314 312 312 313 316 318 320 323 323 315 297 285 288 296 296 297 301 308 318 324 327 332 335 334 332
307 305 313 302 311 319 319 314 312 315 313 314 310 303 305 306 305 307 306 311 314 314 315 314 315 316 318 315 306 298 292 295 294 292 290 294 302 310 317 321 325 328 331 327
306 303 304 308 307 304 304 307 309 313 314 317 319 318 313 308 304 303 304 304 308 310 311 310 309 309 310 309 303 294 298 293 291 286 285 289 294 302 309 315 320 323 325 328
304 311 306 301 305 305 306 311 312 311 311 312 312 312 312 313 312 308 304 301 303 305 310 309 306 306 307 306 302 299 295 292 287 285 286 287 291 297 303 309 316 320 323 326
297 295 298 298 305 304 304 308 308 307 308 309 309 310 311 310 308 308 307 309 309 306 307 306 305 305 306 305 303 299 292 283 282 281 282 280 285 292 299 306 314 321 325 327